Theta_e
318 330 334 335 342 344 346 345 345 346 345 343 342 345 345 347 347 349 345 336 334 331 327 321 320 320 321 321 322 322 322 323 323 323 322 322 321 325 337 333 335 336 336 337 337 331 323 324 324
317 328 332 338 344 343 345 342 345 346 344 344 345 345 346 350 347 346 343 337 338 331 327 320 319 322 320 322 322 324 324 324 325 324 325 325 324 324 324 324 324 324 325 326 324 322 323 323 324
317 327 332 340 341 344 344 344 346 344 345 345 343 344 346 347 346 343 341 341 338 331 324 319 320 321 321 322 322 324 324 325 325 326 326 326 325 325 324 324 324 325 327 327 327 325 324 324 325
322 328 326 339 343 341 343 346 343 345 345 345 342 345 347 347 344 342 342 341 336 329 321 319 322 320 321 321 323 324 324 326 327 327 328 327 326 325 325 325 325 325 326 330 331 330 329 327 330
327 325 333 335 339 340 340 344 343 346 346 344 342 346 347 345 344 341 342 341 334 324 319 320 322 319 321 321 323 325 325 327 328 329 330 329 328 327 326 325 324 324 324 324 324 327 329 331 332
326 324 334 336 337 339 344 345 346 345 346 344 344 345 346 343 341 337 339 336 329 320 319 322 321 319 321 322 324 325 326 328 329 330 331 330 330 329 327 324 322 322 323 321 320 322 323 326 330
327 327 329 329 330 338 345 344 345 344 344 343 343 345 345 343 339 334 334 329 322 320 319 322 321 319 321 322 324 326 326 329 330 330 331 332 331 330 329 326 323 324 325 327 329 328 325 324 326
323 326 327 328 331 333 343 344 344 341 344 342 342 344 345 343 334 331 328 323 321 320 319 322 321 319 320 322 324 326 327 330 331 331 332 333 333 333 331 330 329 328 329 329 329 329 329 326 326
321 326 328 327 328 336 343 344 343 344 343 342 343 343 342 337 332 327 324 322 321 320 319 322 321 319 319 322 324 326 327 330 330 331 332 334 333 333 333 332 330 330 330 329 329 328 327 329 329
323 326 327 325 329 339 343 344 343 345 341 344 342 340 332 331 328 325 324 324 321 320 319 322 321 319 319 321 324 325 326 328 330 331 332 334 334 334 335 334 333 331 331 330 329 327 326 326 328
321 327 324 325 324 335 343 343 343 344 342 343 341 341 334 331 332 332 330 324 321 319 319 321 321 320 319 321 323 324 326 327 329 330 332 335 335 335 335 335 335 332 331 330 330 328 325 326 329
325 323 324 323 331 341 343 343 344 342 341 341 340 338 338 336 336 335 332 324 322 319 319 321 321 320 319 320 322 324 325 327 329 333 335 334 336 336 336 335 336 334 332 330 329 328 325 327 326
323 323 321 321 331 341 343 344 344 343 341 339 337 340 339 338 337 338 335 328 325 326 325 320 322 321 320 321 324 323 326 332 334 335 336 336 337 337 336 337 336 333 334 330 328 328 326 326 325
321 321 321 322 322 335 343 343 344 343 341 340 336 339 339 339 340 339 337 333 333 334 334 324 324 331 325 333 331 330 331 334 335 336 337 336 337 337 338 337 336 331 330 330 329 328 328 327 327
320 323 324 332 331 340 341 344 344 342 342 340 339 340 341 340 341 339 337 336 335 335 336 333 327 336 335 335 335 334 334 334 335 336 337 337 337 336 335 338 336 333 329 328 330 328 330 330 328
322 323 326 333 336 338 340 337 341 342 342 341 341 341 341 341 340 341 340 338 336 335 335 336 334 334 336 335 336 335 335 335 335 336 337 338 338 336 337 335 334 331 329 330 330 329 330 332 328
323 326 325 335 332 339 339 337 338 342 342 340 341 341 342 341 340 341 341 341 338 336 335 336 336 336 336 336 337 335 336 336 335 336 337 339 340 336 337 334 334 333 332 333 332 332 333 332 330
325 325 324 329 335 340 338 339 338 342 342 339 340 341 342 342 338 339 341 341 341 340 336 335 335 336 336 337 338 337 336 336 336 337 338 340 340 339 335 335 334 335 336 336 335 334 334 332 330
322 324 325 323 323 338 341 338 337 342 342 339 339 340 341 342 336 338 339 342 342 341 338 336 335 335 336 336 337 338 337 337 336 338 338 339 335 336 336 336 337 337 338 337 334 334 333 331 331
321 322 323 322 320 334 337 340 339 337 343 341 339 339 340 340 341 337 338 341 340 338 337 336 335 335 335 336 336 337 337 337 337 340 340 339 338 336 337 338 337 337 333 333 331 332 333 331 330
321 322 322 323 322 322 322 327 328 331 336 341 341 340 340 340 340 337 338 338 337 337 336 336 334 334 335 336 336 337 338 339 339 340 339 340 338 336 334 334 334 330 333 333 330 327 329 333 332
322 321 321 321 323 324 323 325 325 329 337 338 339 340 339 339 339 336 337 339 337 337 336 336 334 334 334 338 337 338 339 340 340 339 337 341 339 339 337 336 335 333 333 333 332 332 328 327 329
322 320 321 322 324 323 324 324 325 330 333 339 339 340 340 339 338 338 336 338 338 338 338 337 335 334 334 335 339 341 339 339 341 339 340 340 341 340 338 338 338 333 332 334 332 331 331 332 331
322 321 320 321 323 325 325 325 325 327 330 332 336 338 339 339 339 339 337 338 339 339 338 338 335 334 334 335 336 341 341 341 342 342 342 342 340 338 338 337 338 335 333 334 332 331 329 330 330
322 324 324 324 324 324 323 323 325 328 328 331 331 333 337 339 339 339 339 338 339 339 340 339 336 334 334 335 335 339 342 342 343 342 342 341 340 337 336 336 337 333 330 329 333 331 329 329 330
323 325 324 325 325 324 323 326 326 327 325 325 328 329 331 337 338 339 338 339 339 340 340 340 340 334 336 335 335 340 343 343 343 343 342 340 340 335 332 332 331 328 328 330 330 329 329 326 324
324 325 323 326 323 326 325 326 325 329 330 331 333 332 330 332 337 338 340 340 341 343 341 340 337 338 342 337 339 342 345 343 343 343 341 339 339 334 331 331 329 330 330 329 328 325 324 322 320
325 323 326 325 327 326 326 326 326 328 331 335 335 334 334 332 335 338 340 343 345 343 342 342 341 344 341 343 345 345 343 342 342 338 339 340 338 335 331 332 331 330 329 327 325 321 319 318 318
325 326 326 327 327 327 327 327 332 334 334 334 334 332 335 338 340 342 345 342 342 343 343 343 339 334 342 343 343 334 335 338 337 339 338 336 332 333 332 330 329 328 326 323 320 314 312 313 314
323 324 325 326 330 328 329 329 327 332 332 331 332 335 340 342 344 342 341 342 344 345 339 338 334 332 331 337 333 334 335 331 332 333 336 334 331 330 330 329 326 322 320 316 311 309 309 309 309
Wind_Speed
2 4 3 2 2 0 2 2 2 4 3 2 9 2 3 4 1 2 13 18 18 16 15 15 15 15 15 13 12 11 12 12 13 13 13 14 14 14 13 12 10 10 9 9 8 5 4 4 5
6 4 2 1 1 3 2 1 2 3 8 13 11 7 3 4 4 12 18 19 17 15 15 15 16 16 15 14 12 12 12 13 13 13 14 14 13 13 12 11 11 10 10 8 7 6 6 6 6
7 3 1 2 2 2 3 2 4 11 5 4 4 7 3 3 9 18 18 20 18 16 16 16 17 17 16 14 13 13 13 13 13 14 14 14 14 13 12 12 13 12 12 12 13 12 11 8 7
6 1 3 0 2 1 0 6 13 9 6 5 10 7 5 3 13 14 19 21 19 16 16 17 17 17 15 13 12 13 13 13 13 14 14 14 13 13 13 13 13 12 12 12 12 12 11 10 8
5 2 2 2 1 1 2 10 13 5 5 8 5 6 8 4 11 17 19 21 19 18 17 17 18 17 15 13 12 13 13 13 13 13 13 14 14 13 13 13 13 12 12 11 9 8 8 8 6
2 0 2 3 2 1 3 13 10 3 7 7 8 12 5 5 12 17 20 20 18 18 18 18 17 16 14 12 12 12 12 13 13 13 14 14 14 14 14 13 12 11 12 13 11 10 9 7 5
2 1 2 2 3 2 5 10 8 7 8 5 16 8 5 10 15 19 20 19 18 17 17 18 17 16 14 12 11 11 12 12 11 12 12 14 14 14 15 15 13 11 13 14 14 14 11 9 8
3 1 4 3 3 3 6 10 7 7 5 14 11 6 9 17 19 20 20 19 18 18 17 18 18 17 14 12 11 11 11 10 10 10 11 12 12 12 13 13 12 11 10 12 11 11 11 9 10
4 1 1 1 3 0 9 9 6 6 14 5 3 9 17 23 22 21 21 20 19 19 18 18 18 17 15 12 11 11 11 9 8 8 8 9 10 10 10 9 9 9 10 12 12 9 9 7 7
3 2 3 2 3 3 14 12 12 7 14 5 8 17 24 23 23 22 22 22 21 21 20 19 18 17 15 14 13 12 10 9 8 8 7 8 8 8 7 7 6 8 10 9 12 13 5 5 5
4 2 1 2 8 8 16 11 9 14 9 7 18 25 26 24 23 21 19 19 18 19 20 20 18 18 16 15 13 12 11 10 8 7 7 7 6 5 5 5 4 4 7 9 11 12 7 3 5
4 6 5 3 4 13 15 11 9 10 3 8 22 27 27 25 24 22 19 19 19 19 19 19 19 18 16 15 13 12 11 9 8 8 6 7 6 3 3 6 4 1 4 4 9 12 6 5 8
6 5 7 7 7 13 15 13 6 12 2 12 26 27 27 26 24 21 20 19 19 19 18 20 19 18 17 15 14 13 12 10 8 8 6 6 4 1 2 4 5 4 4 3 6 8 6 3 2
9 4 5 5 9 12 17 6 6 6 12 16 29 28 27 27 25 23 23 21 21 19 18 19 21 18 18 15 13 12 12 10 8 7 6 5 2 3 3 4 4 4 6 3 4 5 4 4 3
2 3 2 4 9 6 14 4 12 9 15 20 24 25 25 28 24 26 24 24 20 19 19 18 21 19 17 15 15 14 13 11 8 6 5 4 3 3 5 5 3 4 1 3 4 7 9 8 5
4 1 3 2 10 5 16 15 13 11 18 21 23 23 26 27 27 26 26 24 24 22 21 20 20 20 18 16 15 14 14 12 10 8 6 4 4 5 4 4 1 0 3 7 6 7 10 10 7
1 5 3 6 5 7 13 7 10 12 18 23 23 23 24 24 27 28 28 26 24 23 22 22 20 19 17 17 16 15 15 14 13 11 8 5 5 4 3 2 2 4 5 7 9 10 9 9 8
7 6 3 4 10 11 15 8 3 14 20 22 23 23 23 23 27 25 26 25 25 26 24 24 22 20 19 18 17 18 18 16 14 12 10 7 6 7 5 6 5 6 7 8 8 10 11 10 9
2 4 7 4 4 9 16 18 11 14 18 21 24 24 25 26 25 25 25 25 25 27 29 27 25 23 22 21 21 22 20 17 15 12 11 10 8 8 8 8 7 7 8 8 9 9 9 10 10
2 4 2 2 2 9 12 18 20 14 24 29 29 26 28 27 24 26 28 29 29 26 28 29 27 26 24 23 21 19 14 15 15 13 12 12 8 7 7 8 8 7 7 8 8 9 9 10 11
3 5 5 3 2 1 2 6 9 10 21 23 27 29 26 28 29 32 31 30 30 31 30 30 28 28 26 24 23 21 18 18 18 18 16 13 9 8 7 5 4 3 4 6 7 8 10 11 14
6 11 7 7 7 6 6 6 5 8 10 16 27 30 34 33 32 35 33 35 34 32 30 29 29 30 27 21 21 20 19 17 16 15 15 14 13 11 11 10 7 5 6 7 9 11 11 12 13
3 5 6 5 8 4 7 5 5 4 7 15 24 33 37 38 37 35 39 37 36 33 28 26 31 31 29 26 19 18 19 20 17 16 16 17 17 16 15 14 12 6 8 9 8 11 13 15 15
6 4 3 2 3 8 10 9 7 6 6 6 16 28 36 39 39 38 40 39 40 38 36 34 31 33 31 31 26 20 18 18 17 19 18 16 15 14 15 14 12 10 9 10 12 11 13 15 17
4 5 5 7 7 10 2 6 11 8 13 14 15 15 24 32 35 40 41 45 43 41 38 36 34 34 33 33 30 22 17 18 19 19 18 14 16 13 14 13 9 9 16 15 11 11 14 16 18
5 4 7 9 10 9 4 5 5 6 13 14 14 18 16 27 38 41 48 49 45 40 39 35 33 33 30 32 30 24 18 16 18 17 15 14 16 13 12 10 11 15 11 11 10 11 10 9 12
3 6 2 2 2 4 4 4 11 7 13 15 16 13 19 25 31 37 35 36 31 21 27 25 26 28 26 27 26 22 17 15 15 16 15 15 14 15 12 9 9 10 5 5 5 7 9 12 15
5 4 3 1 7 10 5 4 5 10 12 9 12 12 14 15 19 20 19 16 20 25 26 27 16 15 24 19 17 13 13 14 13 12 13 12 11 11 9 7 6 5 4 6 8 10 13 15 16
4 3 1 2 3 7 9 6 4 10 10 13 10 9 12 10 4 12 14 22 22 21 20 25 25 33 21 5 13 10 10 11 9 9 9 7 5 7 4 3 1 2 5 9 13 15 15 14 14
3 2 2 4 3 2 4 9 4 8 11 13 12 7 5 2 6 12 15 18 19 23 22 7 13 29 9 15 9 9 10 10 8 6 4 4 5 5 5 2 4 7 11 14 14 11 8 9 9
Wind_Direction
174 106 72 47 199 145 87 66 343 76 102 83 141 182 134 71 3 52 147 150 157 151 144 138 136 137 138 131 121 111 104 99 90 84 79 72 72 67 66 71 65 57 59 63 60 70 118 133 140
168 131 77 85 124 114 98 153 264 63 107 111 97 104 85 91 79 136 143 149 155 153 147 144 139 141 139 131 122 116 112 106 101 93 84 78 75 68 68 64 60 54 50 48 51 63 96 122 129
161 135 65 59 80 79 85 169 126 114 104 148 108 70 67 83 125 140 149 149 156 156 150 145 142 143 140 134 127 123 120 112 101 92 85 78 71 67 62 59 62 61 58 55 58 62 73 96 114
149 90 62 24 91 140 181 146 138 129 86 73 110 75 68 123 131 142 146 150 155 156 151 145 145 147 143 137 130 128 121 113 104 92 82 76 70 64 60 59 57 55 56 55 59 67 78 88 100
127 72 90 97 262 268 215 155 150 135 103 107 82 114 112 134 150 151 152 153 157 156 153 148 150 149 146 139 135 129 122 113 103 96 89 82 76 69 62 60 55 49 47 49 57 62 73 102 109
89 79 143 168 219 240 168 159 143 145 118 125 117 129 129 166 160 156 154 154 159 158 152 152 152 153 151 146 137 132 125 115 107 102 95 91 82 73 68 64 54 46 45 48 49 54 64 82 100
143 154 119 167 245 246 165 166 158 142 128 121 138 132 144 159 167 156 155 158 158 159 156 156 156 159 157 148 141 137 129 122 116 107 100 95 86 76 69 65 59 53 50 51 52 52 54 69 80
134 127 155 219 237 250 161 158 158 139 108 137 146 168 168 171 167 159 159 160 162 163 160 160 162 164 160 155 148 141 136 134 126 113 108 100 92 84 74 69 64 59 41 33 30 34 43 69 78
141 184 116 210 229 96 165 170 136 116 138 142 185 156 160 160 162 164 164 166 170 167 165 166 166 167 166 160 153 151 153 148 137 132 120 104 97 89 81 72 69 60 42 33 21 19 24 46 64
176 211 176 213 235 221 182 187 149 133 154 141 107 145 155 159 162 167 171 173 173 169 167 168 168 171 170 167 166 162 165 164 151 141 132 111 98 87 81 69 65 57 25 22 23 17 5 36 64
171 185 202 225 231 205 173 181 163 138 182 199 165 159 164 166 170 173 175 178 173 170 169 169 171 173 176 174 172 173 174 170 164 148 141 131 113 93 78 51 55 45 33 356 7 9 23 74 98
184 238 236 302 159 169 178 173 159 157 134 199 172 170 170 176 179 176 173 169 174 174 172 171 173 176 178 180 179 181 179 171 164 149 136 134 109 110 67 30 29 348 10 21 14 8 41 90 107
208 219 220 254 197 201 174 193 178 174 129 154 169 176 182 184 185 185 181 173 169 170 172 175 174 174 179 182 183 182 180 167 163 157 140 136 140 105 75 32 32 20 354 12 6 10 27 63 59
188 217 282 294 229 208 187 179 188 129 169 157 173 180 188 194 194 193 190 184 181 175 174 176 176 174 180 184 182 179 178 176 167 161 156 158 172 35 21 355 14 24 357 332 322 341 356 325 293
188 212 155 31 156 177 175 192 221 148 158 168 181 188 195 201 202 203 198 195 189 186 181 182 183 184 185 185 185 184 183 185 182 178 182 184 184 320 319 26 338 328 347 270 321 312 321 326 277
192 168 224 116 172 169 189 225 204 170 172 180 192 194 201 206 210 211 212 209 207 203 199 194 194 198 194 194 194 195 197 200 201 208 217 217 258 270 292 355 67 94 281 282 286 298 311 309 302
90 195 176 156 193 169 202 234 216 188 193 189 195 200 206 210 218 220 219 220 219 216 214 210 207 207 206 203 203 206 212 214 214 221 228 236 255 253 233 251 282 269 294 293 298 300 305 299 294
187 171 158 163 192 191 194 231 200 197 198 205 203 204 209 216 218 220 223 224 227 228 226 225 221 218 216 214 215 216 222 222 219 223 222 221 225 222 227 246 273 295 310 310 312 309 300 288 286
126 159 162 161 183 181 212 225 221 204 213 215 214 212 213 221 219 220 227 232 236 235 231 229 226 225 219 220 223 227 234 232 230 231 225 219 219 218 231 248 269 286 300 306 308 302 294 293 288
149 145 213 308 247 215 215 229 236 210 218 217 217 216 217 223 222 221 225 234 241 234 234 231 230 228 223 226 233 239 247 247 242 243 238 226 234 238 245 253 262 282 308 307 301 291 281 281 284
198 211 181 147 49 287 334 259 241 227 236 230 231 227 226 224 222 226 227 232 234 231 234 235 230 230 226 229 231 235 239 242 241 245 239 232 236 234 238 234 268 298 325 331 321 297 287 271 282
216 211 208 157 181 229 203 239 244 234 244 220 224 222 224 227 226 226 230 231 231 235 237 238 235 232 224 227 232 238 243 254 256 254 252 245 240 237 236 245 236 246 273 303 323 320 307 289 286
200 137 193 177 205 201 197 249 228 227 226 225 222 221 223 223 226 226 228 230 231 234 233 234 237 236 231 229 234 243 244 251 256 252 247 242 239 238 231 238 246 234 263 275 290 307 307 291 291
131 126 82 97 173 229 218 228 225 226 230 250 235 226 223 221 223 227 231 233 237 238 239 238 236 238 237 230 236 244 246 248 249 244 248 243 238 236 242 240 240 258 269 283 285 287 299 299 288
207 179 205 216 217 246 130 213 254 235 238 239 261 251 233 226 223 223 226 229 233 235 239 240 236 238 240 233 236 245 242 244 250 245 247 240 240 247 239 237 234 268 290 296 289 295 299 293 292
185 213 236 228 229 239 142 221 236 258 273 254 260 273 260 229 223 223 229 230 230 232 234 235 234 233 236 233 235 236 236 239 246 247 244 250 240 242 246 241 249 274 280 287 294 315 307 303 304
141 221 335 159 87 254 246 252 277 274 260 260 269 273 265 240 228 226 224 225 226 221 224 232 228 234 233 223 229 231 235 237 240 243 245 255 246 248 259 257 275 288 299 306 330 326 314 310 306
241 131 205 217 239 251 222 246 253 280 273 271 273 302 306 281 243 230 218 198 191 204 206 205 183 301 250 206 210 221 230 237 237 250 256 249 256 258 259 271 254 270 300 319 324 321 316 309 301
158 192 175 277 252 265 270 260 230 272 291 287 282 300 310 324 211 174 171 191 197 192 173 183 204 243 302 198 204 207 224 226 235 239 243 246 246 278 245 204 273 10 338 327 325 321 318 308 303
311 306 206 257 242 256 294 266 222 266 283 284 287 296 335 285 176 180 187 178 171 168 163 208 205 173 176 236 209 189 199 220 208 202 205 197 138 137 121 90 354 341 330 324 323 329 338 321 316